Location: ???????
(54.6339°N, 39.4245°E)
Time: 09:33:39
(UTC+00:00)

Cosmos 1933 - Pass Details

Date: 19 May 2025
Orbit: 516 x 524 km, 82.5° (Epoch: 12 June)

Event Time Altitude Azimuth Distance (km) Brightness Sun altitude
Rises 18:23:30 0° 196° (SSW) 2,645 6.5 -6.6°
Reaches altitude 10° 18:25:39 10° 199° (SSW) 1,760 5.6 -6.8°
Maximum altitude 18:29:30 70° 283° (WNW) 562 3.6 -7.1°
Drops below altitude 10° 18:33:22 10° 8° (N) 1,769 6.6 -7.5°
Sets 18:35:32 0° 11° (N) 2,661 7.5 -7.7°
